{"data":{"norad_id":60255,"epoch":"2026-09-21T14:27:35.376192Z","epoch_age_seconds":86159,"freshness":"FRESH","line1":"1 60255U 24131A   26264.60249278 -.00000768  00000+0 -12974-4 0  9996","line2":"2 60255  53.1567 221.0274 0001612  93.8820 266.2366 15.31695380122035","mean_motion":15.3169538,"eccentricity":0.0001612,"inclination_deg":53.1567,"raan_deg":221.0274,"arg_perigee_deg":93.882,"mean_anomaly_deg":266.2366,"bstar":-1.2974e-5,"rev_number":12203,"period_min":94.013471529829,"perigee_km":469.64972604818,"apogee_km":471.85780843154,"semimajor_km":6848.8907672399,"source":"CELESTRAK","updated_at":"2026-09-22T09:00:49.185958Z"}}